Change the Weather History Date:

Monday, February 10, 2014

  Actual Average Record
Temperature  
Mean Temperature 20 °F -  
Max Temperature 27 °F 43 °F 69 °F (1959)
Min Temperature 14 °F 27 °F -4 °F (2011)
Degree Days  
Heating Degree Days 44    
Moisture  
Dew Point 9 °F    
Average Humidity 59    
Maximum Humidity 74    
Minimum Humidity 47    
Precipitation  
Precipitation 0.00 in - - ()
Sea Level Pressure  
Sea Level Pressure 30.39 in    
Wind  
Wind Speed 10 mph (North)    
Max Wind Speed 16 mph    
Max Gust Speed 18 mph    
Visibility 10 miles    
Events Snow    
Averages and records for this station are not official NWS values.
T = Trace of Precipitation, MM = Missing Value Source: NWS Daily Summary

Daily Weather History Graph

Daily Weather History Graph

Search for Another Location

Airport or City:

Trip Planner

Search our weather history database for the weather conditions in past years. The results will help you decide how hot, cold, wet, or windy it might be!

Date:

Astronomy

Feb. 10, 2014 Rise Set
Actual Time 6:51 AM CST 5:31 PM CST
Civil Twilight 6:24 AM CST 5:58 PM CST
Nautical Twilight 5:53 AM CST 6:29 PM CST
Astronomical Twilight 5:23 AM CST 6:59 PM CST
Moon 2:02 PM CST (2/10) 3:41 AM CST (2/10)
Length of Visible Light 11h 34m
Length of Day
10h 40m
Waxing Gibbous, 85% of the Moon is Illuminated
Feb 10
Waxing Gibbous
Feb 14
Full
Feb 22
Last Quarter
Mar 1
New
Mar 8
First Quarter

Hourly Weather History & Observations

Time (CST) Temp. Windchill Dew Point Humidity Pressure Visibility Wind Dir Wind Speed Gust Speed Precip Events Conditions
12:15 AM 25.7 °F 18.0 °F 18.3 °F 74% 30.30 in 10.0 mi North 6.9 mph - N/A   Clear
12:35 AM 25.7 °F 15.7 °F 18.1 °F 73% 30.30 in 10.0 mi North 10.4 mph - N/A   Clear
12:55 AM 25.3 °F 16.7 °F 18.0 °F 74% 30.30 in 10.0 mi North 8.1 mph - N/A   Clear
1:15 AM 25.2 °F 15.7 °F 17.2 °F 72% 30.31 in 10.0 mi North 9.2 mph - N/A   Clear
1:35 AM 24.8 °F 16.1 °F 17.2 °F 73% 30.32 in 10.0 mi North 8.1 mph - N/A   Clear
1:55 AM 24.4 °F 13.5 °F 16.9 °F 73% 30.32 in 10.0 mi North 11.5 mph - N/A   Scattered Clouds
2:15 AM 23.9 °F 14.2 °F 16.3 °F 73% 30.32 in 10.0 mi North 9.2 mph - N/A   Mostly Cloudy
2:35 AM 23.7 °F 14.0 °F 16.0 °F 72% 30.31 in 10.0 mi North 9.2 mph - N/A   Scattered Clouds
2:55 AM 23.4 °F 14.3 °F 15.8 °F 73% 30.31 in 10.0 mi North 8.1 mph - N/A   Clear
3:15 AM 23.0 °F 13.1 °F 15.4 °F 73% 30.31 in 10.0 mi NNE 9.2 mph - N/A   Clear
3:35 AM 23.0 °F 13.1 °F 15.3 °F 72% 30.33 in 10.0 mi North 9.2 mph - N/A   Clear
3:55 AM 23.0 °F 13.1 °F 14.0 °F 68% 30.33 in 10.0 mi North 9.2 mph 16.1 mph N/A   Clear
4:15 AM 23.0 °F 13.1 °F 13.8 °F 68% 30.33 in 10.0 mi North 9.2 mph - N/A   Clear
4:35 AM 23.0 °F 13.1 °F 13.6 °F 67% 30.35 in 10.0 mi North 9.2 mph - N/A   Clear
4:55 AM 23.0 °F 13.9 °F 13.6 °F 67% 30.35 in 10.0 mi North 8.1 mph - N/A   Clear
5:15 AM 23.0 °F 12.4 °F 13.5 °F 67% 30.33 in 10.0 mi North 10.4 mph - N/A   Mostly Cloudy
5:35 AM 22.8 °F 12.2 °F 13.5 °F 67% 30.34 in 10.0 mi North 10.4 mph - N/A   Mostly Cloudy
5:55 AM 22.8 °F 14.5 °F 13.1 °F 66% 30.36 in 10.0 mi North 6.9 mph - N/A   Mostly Cloudy
6:15 AM 22.8 °F 12.9 °F 13.5 °F 67% 30.36 in 10.0 mi North 9.2 mph - N/A   Overcast
6:35 AM 22.6 °F 11.9 °F 12.2 °F 64% 30.38 in 10.0 mi North 10.4 mph 17.3 mph N/A   Overcast
6:55 AM 22.5 °F 12.4 °F 12.0 °F 64% 30.39 in 10.0 mi North 9.2 mph - N/A   Overcast
7:15 AM 21.9 °F 8.2 °F 11.3 °F 64% 30.39 in 7.0 mi North 16.1 mph - N/A Snow Light Snow
7:35 AM 21.2 °F 8.9 °F 10.0 °F 62% 30.38 in 10.0 mi North 12.7 mph 17.3 mph N/A   Overcast
7:55 AM 21.2 °F 9.5 °F 10.2 °F 63% 30.39 in 7.0 mi North 11.5 mph 17.3 mph N/A Snow Light Snow
8:15 AM 20.8 °F 8.4 °F 10.9 °F 66% 30.41 in 10.0 mi North 12.7 mph - N/A   Overcast
8:35 AM 20.3 °F 9.8 °F 10.8 °F 67% 30.41 in 10.0 mi North 9.2 mph - N/A   Overcast
8:55 AM 20.3 °F 9.8 °F 10.9 °F 67% 30.42 in 7.0 mi North 9.2 mph - N/A   Overcast
9:15 AM 20.3 °F 8.3 °F 10.4 °F 66% 30.44 in 7.0 mi North 11.5 mph 16.1 mph N/A   Overcast
9:35 AM 20.3 °F 7.7 °F 7.7 °F 58% 30.44 in 10.0 mi North 12.7 mph - N/A   Overcast
9:55 AM 20.3 °F 7.7 °F 6.6 °F 56% 30.44 in 10.0 mi North 12.7 mph 17.3 mph N/A   Overcast
10:15 AM 21.0 °F 10.6 °F 7.7 °F 56% 30.44 in 10.0 mi North 9.2 mph - N/A   Overcast
10:35 AM 21.0 °F 10.6 °F 8.2 °F 58% 30.43 in 10.0 mi North 9.2 mph - N/A   Overcast
10:55 AM 21.9 °F 11.0 °F 7.7 °F 54% 30.43 in 10.0 mi North 10.4 mph - N/A   Mostly Cloudy
11:15 AM 22.8 °F 10.9 °F 7.0 °F 51% 30.42 in 10.0 mi North 12.7 mph - N/A   Clear
11:35 AM 23.4 °F 12.2 °F 6.8 °F 49% 30.41 in 10.0 mi North 11.5 mph - N/A   Clear
11:55 AM 23.7 °F 12.6 °F 7.7 °F 51% 30.41 in 10.0 mi North 11.5 mph - N/A   Mostly Cloudy
12:15 PM 23.0 °F 11.7 °F 7.3 °F 51% 30.41 in 10.0 mi North 11.5 mph - N/A   Mostly Cloudy
12:35 PM 23.4 °F 12.8 °F 7.9 °F 52% 30.40 in 10.0 mi North 10.4 mph - N/A   Scattered Clouds
12:55 PM 25.0 °F 14.8 °F 7.7 °F 48% 30.39 in 10.0 mi North 10.4 mph - N/A   Clear
1:15 PM 25.3 °F 16.0 °F 9.0 °F 50% 30.38 in 10.0 mi North 9.2 mph - N/A   Clear
1:35 PM 26.6 °F 18.2 °F 9.3 °F 48% 30.37 in 10.0 mi North 8.1 mph - N/A   Clear
1:55 PM 27.0 °F 19.5 °F 10.0 °F 49% 30.37 in 10.0 mi North 6.9 mph - N/A   Clear
2:15 PM 26.6 °F 18.2 °F 9.5 °F 49% 30.37 in 10.0 mi North 8.1 mph - N/A   Clear
2:35 PM 27.0 °F 18.0 °F 9.5 °F 48% 30.37 in 10.0 mi North 9.2 mph - N/A   Clear
2:55 PM 26.4 °F 16.0 °F 8.8 °F 47% 30.38 in 10.0 mi North 11.5 mph - N/A   Clear
3:15 PM 26.2 °F 17.1 °F 8.8 °F 48% 30.38 in 10.0 mi North 9.2 mph - N/A   Clear
3:35 PM 25.7 °F 16.4 °F 8.2 °F 48% 30.38 in 10.0 mi North 9.2 mph 16.1 mph N/A   Clear
3:55 PM 25.3 °F 14.1 °F 7.5 °F 47% 30.37 in 10.0 mi North 12.7 mph - N/A   Clear
4:15 PM 24.4 °F 14.2 °F 7.3 °F 48% 30.38 in 10.0 mi North 10.4 mph - N/A   Clear
4:35 PM 23.7 °F 12.6 °F 7.2 °F 49% 30.38 in 10.0 mi North 11.5 mph - N/A   Clear
4:55 PM 23.0 °F 13.9 °F 6.6 °F 50% 30.40 in 10.0 mi North 8.1 mph - N/A   Clear
5:15 PM 22.1 °F 10.0 °F 5.9 °F 50% 30.40 in 10.0 mi North 12.7 mph - N/A   Clear
5:35 PM 21.7 °F 10.8 °F 5.5 °F 50% 30.40 in 10.0 mi North 10.4 mph - N/A   Clear
5:55 PM 21.2 °F 9.5 °F 5.2 °F 50% 30.41 in 10.0 mi North 11.5 mph 16.1 mph N/A   Clear
6:15 PM 20.3 °F 7.7 °F 4.8 °F 51% 30.41 in 10.0 mi North 12.7 mph 18.4 mph N/A   Clear
6:35 PM 19.9 °F 8.6 °F 4.8 °F 52% 30.42 in 10.0 mi North 10.4 mph - N/A   Clear
6:55 PM 19.2 °F 8.4 °F 4.6 °F 53% 30.43 in 10.0 mi North 9.2 mph - N/A   Clear
7:15 PM 18.3 °F 6.6 °F 4.3 °F 54% 30.43 in 10.0 mi North 10.4 mph - N/A   Clear
7:35 PM 17.6 °F 8.2 °F 4.5 °F 56% 30.44 in 10.0 mi North 6.9 mph 10.4 mph N/A   Clear
7:55 PM 16.7 °F 7.2 °F 4.1 °F 58% 30.44 in 10.0 mi North 6.9 mph - N/A   Clear
8:15 PM 16.5 °F 4.3 °F 4.1 °F 58% 30.44 in 10.0 mi North 10.4 mph - N/A   Clear
8:35 PM 15.8 °F 3.4 °F 3.9 °F 60% 30.45 in 10.0 mi North 10.4 mph - N/A   Clear
8:55 PM 15.8 °F 5.1 °F 3.6 °F 59% 30.44 in 10.0 mi North 8.1 mph 16.1 mph N/A   Clear
9:15 PM 15.4 °F 3.8 °F 3.6 °F 59% 30.44 in 10.0 mi North 9.2 mph - N/A   Clear
9:35 PM 15.3 °F 2.0 °F 3.2 °F 59% 30.43 in 10.0 mi North 11.5 mph - N/A   Clear
9:55 PM 14.9 °F 2.3 °F 3.4 °F 60% 30.44 in 10.0 mi North 10.4 mph - N/A   Clear
10:15 PM 14.9 °F 6.1 °F 3.2 °F 60% 30.45 in 10.0 mi NNE 5.8 mph - N/A   Clear
10:35 PM 14.9 °F 4.0 °F 3.2 °F 60% 30.45 in 10.0 mi NNE 8.1 mph - N/A   Clear
10:55 PM 14.9 °F 4.0 °F 3.2 °F 60% 30.45 in 10.0 mi North 8.1 mph - N/A   Clear
11:15 PM 14.7 °F 3.8 °F 3.0 °F 60% 30.45 in 10.0 mi North 8.1 mph - N/A   Clear
11:35 PM 14.4 °F 1.6 °F 3.0 °F 61% 30.44 in 10.0 mi North 10.4 mph - N/A   Clear
11:55 PM 14.4 °F 3.3 °F 3.2 °F 61% 30.44 in 10.0 mi North 8.1 mph - N/A   Clear